STARLINK-2523 (48306 NORAD) Tracking and Keplerian Element Data

This shows tracking and keplerian element data for the satellite.

Feedback or suggestion? Click here.




ElementValue
Catalog48306
NameSTARLINK-2523
Epoch Orbit196
Epoch Day173.83334491
Epoch Year2021
RAAN258.7499
Inclination53.0509
Eccentricity0.0001151
Argument of Perigee84.3822
Mean Anonmoly226.0376
Mean Motion15.40992924
Decay Rate-0.01084993
L11 48306U 21036AG 21173.83334491 -.01084993 00000-0 -28242-1 0 9997
L22 48306 53.0509 258.7499 0001151 84.3822 226.0376 15.40992924 1961

Live tracking and technical data element details for STARLINK-2523 (NORAD 48306). STARLINK-2523 can be tracked NOW for your location showing map with azimuth and elevation plus other details from your city location.

Track the satellite on the map from your city or location and see movement details for azimuth, elevation, latitude, longitude, range, height, and movement on the map or in text.







IsCatalogInMostPopularTable: catalog: 48306, numindb: 19
Update: records affected: 1



GetName: 48306 STARLINK-2523

Hit Count: updated at: Thu, 24 Jun 2021 04:12:22 GMT